When you browse on this site, cookies collect data to enhance your experience and personalize the content and advertising you see.
Visit our Privacy Policy to learn more. By continuing to use the site, you agree to this use of cookies and data.
  • In Austria
  • List of Countries
  • For 7 days
  • Water Temperature
  • Weather Map
  • News
  • Weather Widgets
  • user-avatar
    Login

    Hourly Weather San Miguel Vindho

    Today, 23 August, Friday

    Time Temperature Precipitation Wind Pressure Humidity
    00:00 +16°C° 0 mm 1 mps 594 mmHg 87%
    01:00 +15°C° 0 mm 1 mps 594 mmHg 88%
    02:00 +15°C° 0 mm 1 mps 594 mmHg 89%
    03:00 +15°C° 0 mm 1 mps 594 mmHg 89%
    04:00 +15°C° 0 mm 1 mps 593 mmHg 89%
    05:00 +14°C° 0 mm 1 mps 593 mmHg 90%
    06:00 +16°C° 0 mm 1 mps 594 mmHg 84%
    07:00 +17°C° 0 mm 0 mps 595 mmHg 79%
    08:00 +18°C° 0 mm 0 mps 596 mmHg 73%
    09:00 +22°C° 0.1 mm 1 mps 596 mmHg 68%
    10:00 +23°C° 0.1 mm 1 mps 597 mmHg 63%
    11:00 +25°C° 0.1 mm 2 mps 597 mmHg 57%
    12:00 +25°C° 0.7 mm 2 mps 597 mmHg 57%
    13:00 +25°C° 0.7 mm 3 mps 596 mmHg 56%
    14:00 +26°C° 0.7 mm 4 mps 596 mmHg 55%
    15:00 +24°C° 1.7 mm 3 mps 595 mmHg 63%
    16:00 +22°C° 1.7 mm 3 mps 594 mmHg 71%
    17:00 +20°C° 1.7 mm 2 mps 594 mmHg 79%
    18:00 +19°C° 2.9 mm 2 mps 594 mmHg 83%
    19:00 +18°C° 2.9 mm 3 mps 594 mmHg 87%
    20:00 +16°C° 2.9 mm 3 mps 594 mmHg 90%
    21:00 +16°C° 0.3 mm 3 mps 594 mmHg 90%
    22:00 +16°C° 0.3 mm 2 mps 594 mmHg 90%
    23:00 +15°C° 0.3 mm 2 mps 594 mmHg 90%

    Tomorrow, 24 August, Saturday

    Time Temperature Precipitation Wind Pressure Humidity
    00:00 +15°C° 0 mm 1 mps 594 mmHg 89%
    01:00 +15°C° 0 mm 1 mps 594 mmHg 88%
    02:00 +15°C° 0 mm 1 mps 593 mmHg 88%
    03:00 +15°C° 0 mm 1 mps 593 mmHg 87%
    04:00 +15°C° 0 mm 1 mps 593 mmHg 87%
    05:00 +15°C° 0 mm 1 mps 593 mmHg 87%
    06:00 +16°C° 0 mm 1 mps 594 mmHg 82%
    07:00 +19°C° 0 mm 1 mps 595 mmHg 77%
    08:00 +20°C° 0 mm 1 mps 596 mmHg 71%
    09:00 +22°C° 0 mm 1 mps 596 mmHg 66%
    10:00 +23°C° 0 mm 1 mps 597 mmHg 60%
    11:00 +24°C° 0 mm 1 mps 597 mmHg 55%
    12:00 +25°C° 0.3 mm 1 mps 597 mmHg 54%
    13:00 +25°C° 0.3 mm 2 mps 596 mmHg 54%
    14:00 +26°C° 0.3 mm 2 mps 596 mmHg 53%
    15:00 +25°C° 0.8 mm 2 mps 595 mmHg 59%
    16:00 +24°C° 0.8 mm 2 mps 595 mmHg 65%
    17:00 +23°C° 0.8 mm 2 mps 594 mmHg 70%
    18:00 +20°C° 1.3 mm 2 mps 594 mmHg 75%
    19:00 +18°C° 1.3 mm 2 mps 594 mmHg 80%
    20:00 +17°C° 1.3 mm 2 mps 594 mmHg 85%
    21:00 +17°C° 0 mm 2 mps 594 mmHg 84%
    22:00 +18°C° 0 mm 1 mps 594 mmHg 83%
    23:00 +18°C° 0 mm 1 mps 594 mmHg 82%

    Day after tomorrow, 25 August, Sunday

    Time Temperature Precipitation Wind Pressure Humidity
    00:00 +16°C° 0 mm 1 mps 594 mmHg 82%
    01:00 +16°C° 0 mm 1 mps 593 mmHg 83%
    02:00 +15°C° 0 mm 1 mps 593 mmHg 83%
    03:00 +15°C° 0 mm 1 mps 593 mmHg 83%
    04:00 +15°C° 0 mm 1 mps 593 mmHg 83%
    05:00 +14°C° 0 mm 1 mps 593 mmHg 83%
    06:00 +16°C° 0 mm 1 mps 594 mmHg 77%
    07:00 +17°C° 0 mm 0 mps 595 mmHg 71%
    08:00 +19°C° 0 mm 0 mps 596 mmHg 65%
    09:00 +23°C° 0 mm 1 mps 596 mmHg 60%
    10:00 +25°C° 0 mm 1 mps 597 mmHg 55%
    11:00 +26°C° 0 mm 1 mps 597 mmHg 49%
    12:00 +27°C° 0.2 mm 2 mps 596 mmHg 49%
    13:00 +27°C° 0.2 mm 2 mps 596 mmHg 48%
    14:00 +27°C° 0.2 mm 3 mps 596 mmHg 48%
    15:00 +26°C° 0.5 mm 3 mps 595 mmHg 53%
    16:00 +26°C° 0.5 mm 3 mps 595 mmHg 58%
    17:00 +25°C° 0.5 mm 3 mps 594 mmHg 63%
    18:00 +23°C° 1 mm 2 mps 594 mmHg 69%
    19:00 +20°C° 1 mm 2 mps 594 mmHg 75%
    20:00 +19°C° 1 mm 1 mps 594 mmHg 81%
    21:00 +19°C° 0.3 mm 1 mps 594 mmHg 81%
    22:00 +18°C° 0.3 mm 1 mps 594 mmHg 82%
    23:00 +18°C° 0.3 mm 1 mps 594 mmHg 83%

    26 August, Monday

    Time Temperature Precipitation Wind Pressure Humidity
    00:00 +18°C° 0.2 mm 1 mps 593 mmHg 84%
    01:00 +16°C° 0.2 mm 1 mps 593 mmHg 84%
    02:00 +16°C° 0.2 mm 1 mps 592 mmHg 85%
    03:00 +16°C° 0 mm 1 mps 592 mmHg 85%
    04:00 +16°C° 0 mm 1 mps 592 mmHg 85%
    05:00 +16°C° 0 mm 1 mps 592 mmHg 84%
    06:00 +18°C° 0 mm 1 mps 593 mmHg 79%
    07:00 +20°C° 0 mm 1 mps 594 mmHg 73%
    08:00 +22°C° 0 mm 1 mps 595 mmHg 68%
    09:00 +23°C° 0.6 mm 1 mps 595 mmHg 63%
    10:00 +24°C° 0.6 mm 1 mps 595 mmHg 59%
    11:00 +26°C° 0.6 mm 1 mps 596 mmHg 54%
    12:00 +26°C° 1 mm 1 mps 595 mmHg 55%
    13:00 +26°C° 1 mm 1 mps 595 mmHg 55%
    14:00 +26°C° 1 mm 2 mps 594 mmHg 55%
    15:00 +24°C° 1.8 mm 2 mps 593 mmHg 65%
    16:00 +20°C° 1.8 mm 3 mps 592 mmHg 75%
    17:00 +18°C° 1.8 mm 3 mps 591 mmHg 85%
    18:00 +17°C° 1.6 mm 3 mps 592 mmHg 85%
    19:00 +17°C° 1.6 mm 3 mps 592 mmHg 85%
    20:00 +16°C° 1.6 mm 2 mps 593 mmHg 84%
    21:00 +16°C° 0 mm 2 mps 593 mmHg 84%
    22:00 +15°C° 0 mm 1 mps 593 mmHg 83%
    23:00 +14°C° 0 mm 0 mps 593 mmHg 82%

    27 August, Tuesday

    Time Temperature Precipitation Wind Pressure Humidity
    00:00 +14°C° 0 mm 0 mps 593 mmHg 82%
    01:00 +13°C° 0 mm 0 mps 592 mmHg 82%
    02:00 +14°C° 0 mm 1 mps 592 mmHg 82%
    03:00 +14°C° 0 mm 1 mps 592 mmHg 82%
    04:00 +13°C° 0 mm 0 mps 592 mmHg 81%
    05:00 +13°C° 0 mm 0 mps 592 mmHg 81%
    06:00 +16°C° 0 mm 1 mps 593 mmHg 75%
    07:00 +18°C° 0 mm 1 mps 594 mmHg 70%
    08:00 +20°C° 0 mm 1 mps 595 mmHg 65%
    09:00 +21°C° 0 mm 1 mps 595 mmHg 60%
    10:00 +23°C° 0 mm 1 mps 595 mmHg 56%
    11:00 +24°C° 0 mm 1 mps 596 mmHg 52%
    12:00 +25°C° 0.1 mm 2 mps 595 mmHg 53%
    13:00 +25°C° 0.1 mm 3 mps 595 mmHg 53%
    14:00 +25°C° 0.1 mm 3 mps 595 mmHg 54%
    15:00 +24°C° 0.9 mm 3 mps 594 mmHg 60%
    16:00 +22°C° 0.9 mm 3 mps 594 mmHg 67%
    17:00 +21°C° 0.9 mm 3 mps 594 mmHg 74%
    18:00 +20°C° 0.8 mm 3 mps 594 mmHg 78%
    19:00 +18°C° 0.8 mm 2 mps 594 mmHg 81%
    20:00 +18°C° 0.8 mm 1 mps 594 mmHg 84%
    21:00 +18°C° 0.1 mm 1 mps 594 mmHg 85%
    22:00 +16°C° 0.1 mm 1 mps 594 mmHg 85%
    23:00 +16°C° 0.1 mm 1 mps 595 mmHg 85%

    28 August, Wednesday

    Time Temperature Precipitation Wind Pressure Humidity
    00:00 +16°C° 0.2 mm 1 mps 594 mmHg 85%
    01:00 +15°C° 0.2 mm 1 mps 594 mmHg 85%
    02:00 +15°C° 0.2 mm 1 mps 594 mmHg 85%
    03:00 +15°C° 0 mm 1 mps 594 mmHg 85%
    04:00 +15°C° 0 mm 1 mps 594 mmHg 86%
    05:00 +14°C° 0 mm 1 mps 594 mmHg 86%
    06:00 +15°C° 0 mm 0 mps 595 mmHg 81%
    07:00 +16°C° 0 mm 0 mps 596 mmHg 77%
    08:00 +18°C° 0 mm 0 mps 597 mmHg 72%
    09:00 +21°C° 0.1 mm 1 mps 597 mmHg 66%
    10:00 +23°C° 0.1 mm 1 mps 597 mmHg 60%
    11:00 +24°C° 0.1 mm 2 mps 597 mmHg 55%
    12:00 +24°C° 0.4 mm 3 mps 597 mmHg 56%
    13:00 +25°C° 0.4 mm 3 mps 596 mmHg 56%
    14:00 +25°C° 0.4 mm 4 mps 596 mmHg 57%
    15:00 +22°C° 1.6 mm 4 mps 595 mmHg 64%
    16:00 +21°C° 1.6 mm 3 mps 595 mmHg 71%
    17:00 +20°C° 1.6 mm 3 mps 595 mmHg 78%
    18:00 +19°C° 0.8 mm 2 mps 595 mmHg 81%
    19:00 +18°C° 0.8 mm 2 mps 595 mmHg 85%
    20:00 +18°C° 0.8 mm 1 mps 595 mmHg 88%
    21:00 +16°C° 0.2 mm 1 mps 595 mmHg 89%
    22:00 +16°C° 0.2 mm 1 mps 595 mmHg 90%
    23:00 +15°C° 0.2 mm 1 mps 595 mmHg 90%
    Show more